Hourly Weather Gojsk

Today, 18 May, Tuesday

Time Temperature Precipitation Wind Pressure Humidity
00:00 +11°C° 0.4 mm 3 mps 742 mmHg 94%
01:00 +11°C° 0.4 mm 3 mps 742 mmHg 95%
02:00 +11°C° 0.6 mm 3 mps 742 mmHg 95%
03:00 +11°C° 0.6 mm 3 mps 742 mmHg 95%
04:00 +11°C° 0.6 mm 4 mps 742 mmHg 96%
05:00 +10°C° 0.5 mm 4 mps 742 mmHg 95%
06:00 +10°C° 0.5 mm 4 mps 742 mmHg 95%
07:00 +10°C° 0.5 mm 4 mps 743 mmHg 94%
08:00 +11°C° 0.2 mm 4 mps 743 mmHg 93%
09:00 +11°C° 0.2 mm 3 mps 743 mmHg 93%
10:00 +11°C° 0.2 mm 3 mps 743 mmHg 92%
11:00 +12°C° 0 mm 4 mps 743 mmHg 86%
12:00 +13°C° 0 mm 4 mps 743 mmHg 81%
13:00 +14°C° 0 mm 5 mps 743 mmHg 76%
14:00 +14°C° 0.1 mm 5 mps 743 mmHg 75%
15:00 +14°C° 0.1 mm 5 mps 744 mmHg 74%
16:00 +14°C° 0.1 mm 5 mps 744 mmHg 74%
17:00 +13°C° 0 mm 4 mps 744 mmHg 77%
18:00 +12°C° 0 mm 4 mps 744 mmHg 81%
19:00 +11°C° 0 mm 3 mps 744 mmHg 84%
20:00 +11°C° 0 mm 3 mps 744 mmHg 86%
21:00 +10°C° 0 mm 3 mps 745 mmHg 88%
22:00 +9°C° 0 mm 2 mps 745 mmHg 91%
23:00 +9°C° 0 mm 2 mps 745 mmHg 92%

Tomorrow, 19 May, Wednesday

Time Temperature Precipitation Wind Pressure Humidity
00:00 +8°C° 0 mm 2 mps 745 mmHg 93%
01:00 +8°C° 0 mm 2 mps 745 mmHg 95%
02:00 +7°C° 0 mm 2 mps 745 mmHg 95%
03:00 +7°C° 0 mm 3 mps 745 mmHg 96%
04:00 +7°C° 0 mm 3 mps 746 mmHg 97%
05:00 +8°C° 0 mm 3 mps 746 mmHg 91%
06:00 +10°C° 0 mm 4 mps 746 mmHg 86%
07:00 +11°C° 0 mm 4 mps 746 mmHg 81%
08:00 +12°C° 0.1 mm 4 mps 746 mmHg 77%
09:00 +13°C° 0.1 mm 4 mps 746 mmHg 73%
10:00 +14°C° 0.1 mm 5 mps 746 mmHg 69%
11:00 +15°C° 0.3 mm 4 mps 747 mmHg 67%
12:00 +15°C° 0.3 mm 4 mps 747 mmHg 66%
13:00 +15°C° 0.3 mm 4 mps 747 mmHg 64%
14:00 +15°C° 0.3 mm 4 mps 747 mmHg 65%
15:00 +15°C° 0.3 mm 4 mps 747 mmHg 66%
16:00 +15°C° 0.3 mm 4 mps 747 mmHg 66%
17:00 +13°C° 0.3 mm 4 mps 747 mmHg 72%
18:00 +12°C° 0.3 mm 3 mps 748 mmHg 77%
19:00 +11°C° 0.3 mm 3 mps 748 mmHg 83%
20:00 +10°C° 0 mm 2 mps 748 mmHg 85%
21:00 +9°C° 0 mm 2 mps 749 mmHg 86%
22:00 +8°C° 0 mm 2 mps 749 mmHg 88%
23:00 +7°C° 0 mm 2 mps 749 mmHg 89%

Day after tomorrow, 20 May, Thursday

Time Temperature Precipitation Wind Pressure Humidity
00:00 +7°C° 0 mm 2 mps 749 mmHg 90%
01:00 +5°C° 0 mm 3 mps 749 mmHg 90%
02:00 +6°C° 0 mm 2 mps 749 mmHg 90%
03:00 +5°C° 0 mm 2 mps 750 mmHg 89%
04:00 +5°C° 0 mm 2 mps 750 mmHg 89%
05:00 +5°C° 0 mm 3 mps 750 mmHg 85%
06:00 +8°C° 0 mm 3 mps 750 mmHg 81%
07:00 +9°C° 0 mm 3 mps 751 mmHg 76%
08:00 +11°C° 0 mm 4 mps 751 mmHg 71%
09:00 +12°C° 0 mm 4 mps 751 mmHg 65%
10:00 +14°C° 0 mm 4 mps 751 mmHg 59%
11:00 +15°C° 0 mm 4 mps 751 mmHg 57%
12:00 +15°C° 0 mm 4 mps 750 mmHg 54%
13:00 +17°C° 0 mm 4 mps 750 mmHg 52%
14:00 +16°C° 0.1 mm 5 mps 750 mmHg 56%
15:00 +15°C° 0.1 mm 5 mps 750 mmHg 61%
16:00 +14°C° 0.1 mm 5 mps 750 mmHg 65%
17:00 +13°C° 0.4 mm 5 mps 751 mmHg 72%
18:00 +12°C° 0.4 mm 4 mps 751 mmHg 78%
19:00 +11°C° 0.4 mm 4 mps 751 mmHg 84%
20:00 +9°C° 0 mm 3 mps 751 mmHg 86%
21:00 +8°C° 0 mm 3 mps 752 mmHg 88%
22:00 +7°C° 0 mm 3 mps 752 mmHg 89%
23:00 +5°C° 0 mm 3 mps 752 mmHg 90%

21 May, Friday

Time Temperature Precipitation Wind Pressure Humidity
00:00 +4°C° 0 mm 3 mps 752 mmHg 90%
01:00 +4°C° 0 mm 3 mps 752 mmHg 90%
02:00 +3°C° 0 mm 3 mps 752 mmHg 91%
03:00 +3°C° 0 mm 3 mps 752 mmHg 92%
04:00 +3°C° 0 mm 3 mps 752 mmHg 93%
05:00 +4°C° 0 mm 3 mps 752 mmHg 87%
06:00 +6°C° 0 mm 4 mps 752 mmHg 81%
07:00 +7°C° 0 mm 4 mps 752 mmHg 75%
08:00 +8°C° 0 mm 4 mps 752 mmHg 69%
09:00 +10°C° 0 mm 4 mps 752 mmHg 63%
10:00 +10°C° 0 mm 5 mps 752 mmHg 57%
11:00 +12°C° 0 mm 5 mps 752 mmHg 54%
12:00 +13°C° 0 mm 5 mps 751 mmHg 51%
13:00 +14°C° 0 mm 6 mps 751 mmHg 48%
14:00 +14°C° 0 mm 5 mps 751 mmHg 48%
15:00 +14°C° 0 mm 5 mps 750 mmHg 48%
16:00 +14°C° 0 mm 4 mps 750 mmHg 49%
17:00 +13°C° 0 mm 3 mps 750 mmHg 56%
18:00 +12°C° 0 mm 3 mps 749 mmHg 64%
19:00 +12°C° 0 mm 2 mps 749 mmHg 71%
20:00 +10°C° 0 mm 2 mps 749 mmHg 74%
21:00 +9°C° 0 mm 2 mps 749 mmHg 77%
22:00 +9°C° 0 mm 3 mps 749 mmHg 79%
23:00 +9°C° 0 mm 3 mps 749 mmHg 80%

22 May, Saturday

Time Temperature Precipitation Wind Pressure Humidity
00:00 +9°C° 0 mm 3 mps 748 mmHg 81%
01:00 +9°C° 0 mm 3 mps 748 mmHg 81%
02:00 +9°C° 0.1 mm 3 mps 747 mmHg 83%
03:00 +9°C° 0.1 mm 3 mps 747 mmHg 85%
04:00 +9°C° 0.1 mm 3 mps 747 mmHg 87%
05:00 +10°C° 0 mm 4 mps 746 mmHg 83%
06:00 +10°C° 0 mm 5 mps 746 mmHg 80%
07:00 +12°C° 0 mm 5 mps 746 mmHg 76%
08:00 +14°C° 0 mm 6 mps 746 mmHg 71%
09:00 +15°C° 0 mm 6 mps 746 mmHg 66%
10:00 +16°C° 0 mm 7 mps 745 mmHg 62%
11:00 +15°C° 0.1 mm 6 mps 746 mmHg 67%
12:00 +14°C° 0.1 mm 5 mps 746 mmHg 73%
13:00 +13°C° 0.1 mm 4 mps 746 mmHg 79%
14:00 +14°C° 0.3 mm 4 mps 746 mmHg 78%
15:00 +15°C° 0.3 mm 5 mps 745 mmHg 76%
16:00 +15°C° 0.3 mm 5 mps 745 mmHg 75%
17:00 +14°C° 1 mm 5 mps 746 mmHg 81%
18:00 +12°C° 1 mm 4 mps 746 mmHg 87%
19:00 +11°C° 1 mm 4 mps 746 mmHg 94%
20:00 +11°C° 0.2 mm 3 mps 746 mmHg 93%
21:00 +10°C° 0.2 mm 3 mps 746 mmHg 93%
22:00 +10°C° 0.2 mm 2 mps 747 mmHg 93%
23:00 +9°C° 0 mm 3 mps 747 mmHg 93%

23 May, Sunday

Time Temperature Precipitation Wind Pressure Humidity
00:00 +9°C° 0 mm 3 mps 747 mmHg 93%
01:00 +8°C° 0 mm 3 mps 747 mmHg 93%
02:00 +8°C° 0 mm 2 mps 747 mmHg 91%
03:00 +7°C° 0 mm 2 mps 747 mmHg 90%
04:00 +7°C° 0 mm 2 mps 747 mmHg 88%
05:00 +8°C° 0 mm 2 mps 747 mmHg 84%
06:00 +10°C° 0 mm 3 mps 747 mmHg 80%
07:00 +11°C° 0 mm 3 mps 747 mmHg 76%
08:00 +13°C° 0 mm 3 mps 747 mmHg 70%
09:00 +14°C° 0 mm 4 mps 747 mmHg 64%
10:00 +15°C° 0 mm 4 mps 747 mmHg 58%
11:00 +15°C° 0.2 mm 4 mps 747 mmHg 60%
12:00 +15°C° 0.2 mm 5 mps 747 mmHg 62%
13:00 +15°C° 0.2 mm 5 mps 747 mmHg 64%
14:00 +15°C° 0.2 mm 5 mps 747 mmHg 64%
15:00 +15°C° 0.2 mm 4 mps 748 mmHg 65%
16:00 +15°C° 0.2 mm 4 mps 748 mmHg 66%
17:00 +14°C° 0.2 mm 3 mps 748 mmHg 72%
18:00 +13°C° 0.2 mm 3 mps 748 mmHg 77%
19:00 +13°C° 0.2 mm 2 mps 748 mmHg 83%
20:00 +12°C° 0 mm 2 mps 749 mmHg 85%
21:00 +10°C° 0 mm 2 mps 749 mmHg 87%
22:00 +9°C° 0 mm 2 mps 750 mmHg 89%
23:00 +9°C° 0 mm 3 mps 750 mmHg 90%
Show more